TimeCST,TemperatureF,Dew PointF,Humidity,Sea Level PressureIn,VisibilityMPH,Wind Direction,Wind SpeedMPH,Gust SpeedMPH,PrecipitationIn,Events,Conditions,WindDirDegrees,DateUTC
12:00 AM,77.0,73.4,89,29.89,6.2,Calm,Calm,-,N/A,,Scattered Clouds,0,2012-10-04 06:00:00
1:00 AM,77.0,73.4,89,29.86,6.2,Calm,Calm,-,N/A,,Scattered Clouds,0,2012-10-04 07:00:00
2:00 AM,75.2,73.4,94,29.86,6.2,Calm,Calm,-,N/A,,Scattered Clouds,0,2012-10-04 08:00:00
3:00 AM,75.2,73.4,94,29.86,6.2,Calm,Calm,-,N/A,,Scattered Clouds,0,2012-10-04 09:00:00
4:00 AM,75.2,73.4,94,29.86,6.2,Calm,Calm,-,N/A,,Scattered Clouds,0,2012-10-04 10:00:00
5:00 AM,75.2,73.4,94,29.89,6.2,Calm,Calm,-,N/A,,Scattered Clouds,0,2012-10-04 11:00:00
6:00 AM,73.4,71.6,94,29.89,5.6,Calm,Calm,-,N/A,,Scattered Clouds,0,2012-10-04 12:00:00
7:00 AM,78.8,73.4,83,29.92,6.2,Calm,Calm,-,N/A,,Scattered Clouds,0,2012-10-04 13:00:00
8:00 AM,82.4,73.4,74,29.92,6.2,East,9.2,-,N/A,,Scattered Clouds,90,2012-10-04 14:00:00
9:00 AM,84.2,73.4,70,29.95,6.2,East,9.2,-,N/A,,Scattered Clouds,90,2012-10-04 15:00:00
10:00 AM,86.0,73.4,66,29.92,6.2,East,11.5,-,N/A,,Scattered Clouds,80,2012-10-04 16:00:00
11:00 AM,87.8,71.6,58,29.92,6.2,East,9.2,-,N/A,,Scattered Clouds,90,2012-10-04 17:00:00
12:00 PM,87.8,75.2,66,29.86,6.2,ENE,6.9,-,N/A,,Scattered Clouds,70,2012-10-04 18:00:00
1:00 PM,91.4,75.2,59,29.83,3.7,ESE,20.7,-,N/A,Rain,Rain,120,2012-10-04 19:00:00
2:00 PM,86.0,71.6,62,29.83,4.3,SE,16.1,-,N/A,Rain,Rain,130,2012-10-04 20:00:00
3:00 PM,86.0,73.4,66,29.80,6.2,SE,9.2,-,N/A,,Scattered Clouds,130,2012-10-04 21:00:00
4:00 PM,86.0,73.4,66,29.83,6.2,ESE,11.5,-,N/A,,Scattered Clouds,120,2012-10-04 22:00:00
5:00 PM,82.4,75.2,79,29.83,6.2,East,11.5,-,N/A,,Scattered Clouds,90,2012-10-04 23:00:00
6:00 PM,80.6,75.2,84,29.86,6.2,East,4.6,-,N/A,,Scattered Clouds,100,2012-10-05 00:00:00
7:00 PM,78.8,69.8,74,29.86,6.2,East,4.6,-,N/A,,Scattered Clouds,90,2012-10-05 01:00:00
8:00 PM,78.8,71.6,78,29.89,6.2,Calm,Calm,-,N/A,,Scattered Clouds,0,2012-10-05 02:00:00
9:00 PM,77.0,71.6,83,29.92,6.2,Calm,Calm,-,N/A,,Scattered Clouds,0,2012-10-05 03:00:00
10:00 PM,77.0,71.6,83,29.92,6.2,Calm,Calm,-,N/A,,Partly Cloudy,0,2012-10-05 04:00:00
11:00 PM,75.2,71.6,89,29.92,6.2,Calm,Calm,-,N/A,,Partly Cloudy,0,2012-10-05 05:00:00